Temperature
14 14 14 14 14 14 14 14 14 15 14 13 13 13 13 13 13 13 13 13 13 13 13 13 13 13 13 13 13 13 13 13 13 13 13 13 13 13
14 14 14 14 14 14 14 13 13 14 14 13 13 13 13 13 13 13 13 13 13 13 13 13 13 13 13 13 13 13 13 13 13 13 13 13 13 13
14 14 14 14 13 13 13 13 13 13 13 13 12 12 12 13 13 13 13 13 13 13 13 13 13 13 13 13 13 13 13 12 12 12 12 12 12 12
14 13 13 13 13 13 13 13 13 13 13 12 12 12 12 12 12 12 12 12 12 12 12 12 12 12 12 12 12 12 12 12 12 12 12 12 12 12
13 13 13 13 13 13 13 13 13 13 12 12 12 12 12 12 12 12 12 12 12 12 12 12 12 12 12 12 12 12 12 12 11 11 11 11 11 11
13 13 13 13 13 12 12 12 12 12 12 12 12 12 11 12 11 11 11 11 11 11 11 11 11 11 11 11 11 11 11 11 11 11 11 11 11 11
13 13 13 13 13 13 12 12 12 12 12 12 12 11 11 11 11 11 11 11 11 11 11 10 10 10 10 10 11 11 11 11 10 10 10 10 10 10
13 13 13 13 13 12 12 12 12 12 11 11 11 11 11 11 11 10 10 10 10 10 10 10 10 10 10 10 10 10 10 10 10 10 10 10 10 10
13 12 12 12 12 12 12 12 12 12 11 11 11 10 10 10 10 10 10 10 10 10 10 9 9 9 9 9 10 10 10 9 9 9 9 9 9 9
13 12 12 12 12 11 11 11 11 11 11 11 11 10 10 10 10 10 9 9 9 9 9 9 9 9 9 9 9 9 9 9 9 9 9 9 9 9
12 12 12 12 12 12 11 11 11 11 11 11 10 10 10 10 10 9 9 9 9 8 8 8 8 8 8 8 8 8 8 8 8 8 8 8 8 8
12 12 12 12 12 11 11 11 10 10 10 10 10 10 9 9 9 9 8 8 8 8 8 7 7 7 7 8 7 7 7 7 7 7 7 7 7 7
12 12 11 12 11 11 11 10 10 10 9 9 9 9 9 9 8 8 8 8 7 7 7 7 6 6 6 6 6 6 6 6 6 6 6 6 6 6
12 11 11 11 11 11 10 10 10 10 9 9 9 9 8 8 8 8 7 7 7 7 6 6 6 6 5 5 6 6 5 5 5 5 5 5 5 5
12 11 11 11 11 10 10 10 10 9 9 8 8 8 8 8 7 7 7 7 6 6 6 6 6 5 5 5 5 5 5 5 5 5 4 4 4 4
11 11 11 10 10 10 10 9 9 9 8 8 8 8 7 7 7 7 6 6 6 6 6 6 5 5 5 5 4 4 4 4 4 4 4 4 4 3
11 10 10 10 10 9 9 9 8 8 8 8 7 7 7 6 6 6 6 6 5 5 5 5 5 5 4 4 4 4 4 3 3 3 3 3 3 3
10 10 10 9 9 9 8 8 8 8 7 7 7 6 6 6 6 5 5 5 5 5 4 4 4 4 4 4 4 3 3 3 2 2 2 2 2 2
10 9 9 9 8 8 8 8 7 7 7 7 6 6 6 5 5 5 5 4 4 4 4 3 3 3 3 3 3 3 2 2 2 2 2 1 1 2
9 9 9 8 8 8 7 7 7 7 6 6 6 5 5 5 4 4 4 4 4 3 3 3 2 2 2 2 2 2 2 1 1 1 1 1 1 1
9 9 8 8 8 7 7 7 6 6 6 6 5 5 5 4 4 4 4 4 3 3 3 2 2 2 2 1 1 1 1 1 1 0 0 0 0 1
8 8 8 7 7 7 6 6 6 6 5 5 5 4 4 4 4 3 3 3 3 2 2 2 2 1 1 1 1 1 1 1 1 0 0 -0 -1 -0
8 7 7 7 6 6 6 6 5 5 5 4 4 4 4 3 3 3 3 2 2 2 2 1 1 1 1 0 0 0 0 0 -0 -0 -0 -0 -0 -1
Wind_Speed
2 2 1 2 1 1 1 1 2 1 1 1 1 2 3 3 4 4 4 6 6 7 8 9 10 10 10 10 10 11 10 9 8 8 8 8 8 8
2 2 2 2 1 1 1 1 2 2 1 1 1 1 2 2 3 4 4 3 5 6 7 8 8 9 9 9 10 10 10 9 9 8 8 7 7 7
2 2 2 2 1 1 1 1 1 1 1 0 1 1 1 2 2 3 3 3 3 5 5 6 6 7 7 8 8 8 8 8 8 8 8 8 7 7
2 2 2 2 2 1 1 1 1 1 1 1 1 1 2 2 2 3 2 3 3 4 4 4 5 5 6 6 6 6 7 7 7 7 7 7 7 7
1 1 2 1 1 1 0 1 0 0 1 1 1 1 1 2 2 2 2 2 2 1 1 2 2 3 4 5 5 6 6 6 6 7 7 7 7 7
1 1 1 1 1 1 0 1 1 1 1 1 1 1 2 2 2 3 3 2 3 3 3 2 1 1 2 3 4 5 6 6 6 7 7 7 7 8
1 1 1 3 5 3 2 2 1 1 1 1 2 2 2 2 3 3 4 4 3 2 3 3 3 3 3 2 3 4 5 6 7 7 7 7 7 8
1 1 1 1 1 1 1 3 4 3 2 2 2 3 3 3 3 4 4 4 4 2 4 4 3 3 3 4 4 4 5 6 6 7 7 8 8 8
2 1 1 1 1 1 2 3 1 2 3 4 4 4 5 4 5 5 5 5 6 5 5 5 4 4 4 3 2 3 5 6 7 7 8 9 9 9
2 2 2 2 1 1 1 1 1 1 2 3 4 5 5 5 6 6 6 6 6 4 3 5 5 6 5 5 2 3 5 6 7 8 9 9 10 11
2 3 3 3 1 2 3 2 2 2 0 1 3 3 4 4 5 5 5 5 6 5 3 5 6 6 6 5 3 3 5 6 7 8 10 10 11 12
2 2 2 3 1 2 4 3 4 3 3 2 2 3 4 2 4 5 5 5 6 5 3 4 6 6 6 4 5 6 6 6 8 9 10 10 10 10
3 2 1 4 3 3 5 4 3 4 4 4 3 3 3 3 3 4 4 5 6 6 4 4 6 6 6 7 7 6 7 8 8 8 8 8 9 10
3 2 1 3 3 3 3 2 1 3 4 3 3 3 3 3 4 4 5 5 6 7 7 6 6 7 8 9 8 7 7 8 8 8 9 8 9 10
2 1 1 2 2 3 4 4 4 3 3 4 4 4 4 4 4 4 5 6 7 7 7 7 7 7 8 9 9 8 8 8 7 7 8 8 9 8
2 3 3 2 3 2 2 3 3 3 3 4 4 4 4 4 4 4 4 4 5 5 5 7 7 7 8 9 9 9 9 7 7 8 8 9 9 10
3 2 3 2 2 2 2 2 2 3 3 3 4 4 4 4 4 4 4 5 6 6 6 5 6 7 8 8 9 9 9 8 8 8 9 10 9 9
3 3 3 2 3 3 3 3 2 3 3 3 4 4 4 4 5 4 4 5 6 6 6 5 5 6 7 6 6 8 8 9 9 9 9 10 11 10
3 3 3 3 3 3 3 3 3 3 3 3 4 4 4 5 5 5 5 6 6 7 6 6 5 6 8 9 6 5 8 9 9 9 9 10 11 11
3 3 3 3 3 3 3 3 3 3 3 3 4 4 4 5 5 6 6 6 7 7 7 6 6 6 8 9 9 9 8 8 9 10 10 10 11 12
3 3 2 2 2 2 2 3 3 3 4 4 4 5 5 5 6 6 7 7 7 7 8 7 6 7 8 8 9 9 8 8 9 9 11 11 11 11
3 3 2 2 2 2 2 3 3 3 4 4 4 5 5 6 7 8 7 7 7 7 9 8 7 7 7 8 10 11 11 10 10 12 12 11 10 10
3 2 2 2 2 2 2 3 4 4 4 4 5 5 5 6 6 7 7 7 7 8 8 7 7 7 7 8 10 10 12 12 10 10 9 9 13 17
Wind_Direction
61 71 60 66 52 29 349 306 313 307 51 51 43 49 41 42 19 28 38 48 41 36 35 35 36 34 32 31 31 30 33 37 39 37 31 26 21 18
47 51 54 66 68 49 344 321 323 317 336 43 26 27 24 16 28 14 23 60 56 40 34 32 33 31 29 27 27 28 29 31 29 27 24 19 16 14
81 69 65 53 61 56 35 15 358 322 298 10 42 30 7 357 12 3 1 3 42 49 31 26 27 27 24 23 22 23 23 22 19 16 13 9 6 4
65 66 63 77 65 47 33 39 37 349 321 317 316 356 338 346 343 343 355 7 6 53 33 23 23 20 18 17 16 15 12 7 4 2 359 356 353 351
60 47 47 61 65 67 32 11 0 18 310 282 325 339 312 333 328 334 342 340 334 12 29 6 10 11 12 11 10 9 6 2 358 351 346 344 343 340
71 40 22 11 350 360 344 339 326 305 284 286 305 308 307 317 312 318 323 328 315 327 336 314 295 291 353 3 4 2 357 354 350 347 342 337 334 333
135 79 47 38 23 7 348 336 317 294 285 292 301 303 305 311 314 310 309 310 307 316 313 306 305 314 320 314 330 344 343 345 345 342 339 336 332 330
203 200 137 136 125 127 7 357 348 317 307 298 296 299 308 306 305 299 305 308 309 333 312 309 306 306 312 323 357 344 333 334 336 333 331 329 325 322
235 235 218 196 225 215 173 187 217 311 302 302 303 308 310 313 304 298 302 303 303 313 308 301 303 301 307 324 340 320 323 327 327 325 322 321 317 312
238 243 240 246 240 269 260 266 290 297 293 282 297 308 315 316 304 299 298 291 291 292 289 293 305 303 303 301 278 293 302 306 311 314 314 312 310 306
236 247 250 248 132 244 255 264 274 271 155 244 306 311 332 326 309 294 297 292 295 298 297 295 304 307 297 289 277 254 276 282 292 299 303 303 302 298
230 234 238 252 183 233 252 263 271 280 284 265 244 242 264 264 263 278 290 291 297 299 317 303 301 309 300 293 303 304 296 285 280 281 286 292 296 297
239 241 223 174 206 236 265 273 291 299 288 288 291 291 287 290 284 280 286 287 290 291 311 303 296 297 292 297 300 299 303 305 300 295 282 277 282 287
248 251 180 139 190 231 248 258 282 279 276 280 282 287 292 295 296 297 290 282 280 286 297 293 288 291 292 293 297 301 303 302 301 302 305 296 279 269
242 68 90 159 194 215 212 227 240 252 266 276 283 289 294 295 298 297 289 284 282 281 284 284 282 285 284 287 291 296 299 300 297 301 304 304 302 299
200 157 166 192 212 229 223 221 235 254 269 276 285 289 292 292 290 288 286 286 283 282 279 280 283 282 281 285 287 291 294 293 297 300 300 300 300 297
184 199 212 219 236 237 236 243 247 247 254 266 276 284 288 287 287 288 287 288 287 291 291 290 288 285 279 281 286 289 294 296 298 303 302 298 297 298
193 217 226 240 254 259 256 253 253 263 271 276 280 284 287 289 291 293 290 287 287 291 295 301 302 299 294 283 265 286 293 297 300 300 297 297 297 298
213 229 233 242 253 255 259 265 270 272 272 273 278 284 288 290 292 292 291 290 291 295 299 301 300 299 299 300 295 274 294 298 299 297 296 295 295 298
225 230 233 240 249 256 261 266 273 273 268 271 277 282 285 287 288 288 289 292 293 296 296 295 293 292 291 295 296 298 283 290 297 297 299 297 294 294
217 227 232 239 249 256 264 269 272 275 276 273 274 277 281 282 283 285 287 283 283 288 291 292 296 284 286 289 289 293 298 288 284 289 298 300 301 299
218 221 226 236 244 251 259 267 273 277 280 279 281 282 284 284 285 287 288 289 288 290 293 296 300 295 290 287 291 297 303 304 295 278 271 274 290 295
215 221 224 226 238 252 263 267 273 280 283 286 288 291 293 292 292 291 290 290 292 295 298 300 302 298 294 292 294 297 301 305 305 303 296 282 272 273
Height
1568 1567 1567 1566 1566 1566 1566 1566 1567 1566 1566 1565 1564 1562 1561 1560 1558 1557 1556 1554 1552 1550 1548 1546 1544 1542 1540 1538 1536 1534 1532 1530 1530 1530 1530 1529 1529 1528
1568 1567 1567 1567 1566 1565 1565 1565 1565 1566 1565 1565 1563 1562 1561 1560 1558 1557 1556 1554 1552 1550 1549 1547 1545 1543 1541 1539 1537 1535 1533 1532 1531 1530 1529 1529 1528 1527
1568 1568 1567 1567 1566 1566 1565 1565 1565 1565 1564 1564 1563 1562 1560 1559 1558 1557 1555 1554 1552 1550 1549 1547 1545 1543 1541 1539 1537 1536 1534 1532 1531 1530 1529 1528 1527 1526
1569 1568 1567 1567 1566 1565 1565 1565 1564 1564 1564 1563 1563 1561 1560 1558 1557 1556 1555 1553 1552 1550 1548 1546 1545 1543 1541 1539 1537 1535 1534 1532 1531 1529 1528 1527 1526 1525
1569 1568 1567 1567 1566 1565 1565 1564 1564 1563 1563 1562 1561 1560 1559 1558 1556 1555 1554 1552 1551 1549 1547 1545 1544 1542 1540 1538 1536 1535 1533 1531 1530 1528 1527 1525 1524 1523
1568 1567 1567 1566 1566 1565 1564 1564 1563 1563 1562 1561 1560 1559 1558 1557 1555 1554 1553 1551 1550 1548 1546 1544 1542 1541 1539 1537 1535 1533 1532 1530 1528 1527 1525 1524 1522 1521
1567 1567 1566 1565 1565 1564 1563 1563 1562 1562 1561 1560 1559 1558 1557 1556 1554 1553 1551 1550 1548 1546 1544 1543 1541 1539 1537 1535 1533 1532 1530 1528 1526 1525 1523 1521 1520 1518
1567 1566 1565 1564 1563 1563 1562 1561 1561 1560 1560 1559 1558 1557 1556 1554 1552 1551 1550 1548 1547 1545 1542 1540 1539 1537 1535 1533 1531 1529 1527 1526 1524 1522 1520 1518 1517 1515
1565 1565 1564 1563 1562 1562 1561 1560 1559 1558 1557 1557 1556 1555 1554 1552 1551 1549 1548 1546 1544 1542 1540 1538 1537 1534 1533 1530 1528 1526 1524 1523 1521 1519 1517 1515 1513 1511
1564 1563 1563 1562 1561 1560 1560 1559 1558 1556 1555 1554 1553 1552 1551 1550 1548 1547 1545 1543 1541 1540 1537 1536 1534 1532 1530 1527 1525 1523 1521 1519 1517 1515 1513 1511 1509 1507
1562 1561 1561 1560 1559 1558 1558 1557 1555 1554 1553 1551 1550 1549 1547 1546 1545 1544 1542 1541 1539 1538 1535 1533 1531 1529 1527 1525 1522 1519 1517 1515 1513 1511 1509 1507 1505 1503
1560 1559 1558 1558 1557 1556 1556 1555 1553 1552 1551 1549 1548 1546 1545 1543 1542 1541 1539 1538 1537 1535 1532 1530 1528 1526 1524 1522 1520 1517 1514 1512 1509 1507 1505 1503 1501 1498
1558 1557 1556 1555 1554 1553 1553 1552 1551 1550 1548 1547 1545 1544 1542 1541 1539 1538 1536 1535 1533 1532 1530 1527 1525 1524 1522 1519 1516 1514 1511 1509 1506 1503 1501 1498 1496 1494
1555 1554 1553 1552 1551 1550 1550 1549 1548 1546 1545 1544 1543 1541 1539 1538 1536 1534 1532 1531 1529 1528 1525 1523 1522 1520 1518 1515 1513 1510 1508 1505 1502 1499 1497 1494 1492 1489
1551 1551 1550 1549 1548 1547 1546 1546 1544 1543 1542 1541 1540 1538 1536 1534 1532 1530 1528 1527 1525 1523 1521 1519 1518 1516 1514 1512 1509 1506 1503 1501 1498 1495 1493 1490 1488 1485
1548 1547 1547 1546 1545 1544 1543 1542 1541 1540 1539 1538 1536 1535 1533 1530 1529 1527 1525 1523 1521 1519 1517 1515 1513 1511 1509 1507 1505 1502 1500 1497 1494 1491 1488 1485 1483 1480
1545 1544 1544 1543 1542 1541 1540 1539 1538 1537 1535 1534 1533 1531 1529 1527 1525 1523 1521 1520 1518 1516 1514 1511 1509 1507 1505 1503 1500 1497 1495 1492 1490 1486 1483 1479 1477 1475
1542 1541 1540 1540 1539 1538 1537 1536 1535 1533 1532 1530 1529 1527 1526 1524 1522 1520 1518 1516 1514 1512 1510 1507 1505 1502 1500 1498 1496 1493 1490 1488 1484 1481 1478 1474 1471 1469
1538 1538 1537 1537 1536 1535 1534 1532 1531 1530 1528 1527 1525 1524 1522 1520 1518 1516 1514 1512 1510 1508 1506 1503 1501 1498 1496 1493 1491 1489 1485 1482 1479 1476 1473 1470 1466 1463
1535 1534 1534 1533 1532 1531 1530 1529 1527 1526 1525 1523 1521 1520 1518 1516 1514 1513 1511 1508 1506 1503 1501 1499 1497 1494 1492 1489 1485 1483 1481 1477 1474 1471 1468 1464 1461 1457
1531 1531 1530 1530 1529 1528 1527 1525 1524 1522 1521 1519 1517 1516 1514 1513 1510 1509 1507 1504 1502 1499 1497 1495 1492 1489 1487 1484 1481 1477 1475 1473 1470 1466 1462 1459 1455 1451
1528 1528 1527 1526 1525 1524 1523 1522 1521 1519 1517 1515 1514 1512 1510 1508 1506 1504 1502 1500 1498 1495 1492 1490 1487 1485 1482 1479 1476 1472 1469 1467 1464 1461 1458 1455 1451 1446
1524 1524 1523 1522 1521 1520 1519 1518 1517 1515 1514 1512 1510 1508 1506 1504 1502 1500 1498 1495 1493 1490 1488 1485 1483 1480 1477 1475 1471 1468 1464 1461 1458 1455 1452 1449 1446 1442